Location: Unspecified
(0.0000°N, 0.0000°E)
Time: 06:44:15
(UTC+00:00)

Tiangong - Pass Details

Date: 26 November 2022
Orbit: 385 x 393 km, 41.5° (Epoch: 29 November)

Event Time Altitude Azimuth Distance (km) Brightness Sun altitude
Exits shadow 04:27:57 69° 319° (NW) 419 -2.3 -18.5°
Maximum altitude 04:28:18 88° 44° (NE) 393 -2.2 -18.4°
Drops below altitude 10° 04:31:30 10° 133° (SE) 1,417 1.8 -17.6°
Sets 04:33:35 0° 134° (SE) 2,272 3.1 -17.2°
